Regional Weather Roundup
Issued by NWS Albany, NY

Home | Current Version | Previous Version | Graphics & Text | Print | Product List | Glossary Off
Versions: 1 2 3 4 5 6 7 8 9 10 11 12 13 14 15 16 17 18 19 20 21 22 23 24 25 26 27

000
ASUS41 KALY 260210
RWRALY

NEW YORK STATE HOURLY WEATHER ROUNDUP
NATIONAL WEATHER SERVICE ALBANY NY
1000 PM EDT SUN SEP 25 2016

NOTE: "FAIR" INDICATES FEW OR NO CLOUDS BELOW 12,000 FEET WITH NO
SIGNIFICANT WEATHER AND/OR NO OBSTRUCTIONS TO VISIBILITY.

NYZ032-033-038>043-046>054-057>066-NYZ062>081-082-084-260300-
EAST


CITY           SKY/WX    TMP DP  RH WIND       PRES   REMARKS
ALBANY         PTCLDY    50  41  71 CALM      30.21R
GLENS FALLS    CLEAR     42  38  85 CALM      30.20R
POUGHKEEPSIE   CLEAR     45  40  82 CALM      30.19R
NEWBURGH       CLEAR     50  41  71 CALM      30.20
MONTGOMERY     CLEAR     46  41  82 CALM      30.19R
WHITE PLAINS   CLEAR     52  39  61 CALM      30.18R
ISLIP          CLEAR     54  38  54 NE3       30.18R
NEW YORK CITY  PTCLDY    67  38  34 NE6       30.17R
CENTRAL PARK   CLEAR     62  40  44 CALM      30.20R
$$

NYZ005>009-017-018-044>046-055-056-260300-
CENTRAL


CITY           SKY/WX    TMP DP  RH WIND       PRES   REMARKS
FULTON         CLOUDY    44  42  93 CALM      30.20S
SYRACUSE       PTCLDY    49  43  80 S3        30.21R
ROME           CLOUDY    45  40  82 CALM      30.23S
ELMIRA         CLOUDY    45  36  70 CALM      30.20R
BINGHAMTON     CLEAR     49  35  58 E6        30.20S
MONTICELLO     CLEAR     46  37  71 N6        30.21F
$$

NYZ026>034-041>043-087-260300-
NORTH


CITY           SKY/WX    TMP DP  RH WIND       PRES   REMARKS
WATERTOWN      CLOUDY    42  40  92 E3        30.20S
FORT DRUM      NOT AVBL
OGDENSBURG     FAIR      40  38  95 CALM      30.20S
MASSENA        CLEAR     43  39  86 CALM      30.21S
SARANAC LAKE   CLEAR     33  30  88 CALM      30.20R
PLATTSBURGH    CLEAR     46  38  73 MISG      30.19R
$$

NYZ001>004-010>016-019>021-085-260300-
WEST


CITY           SKY/WX    TMP DP  RH WIND       PRES   REMARKS
NIAGARA FALLS  PTCLDY    53  42  66 E8        30.15F
BUFFALO        PTCLDY    54  41  61 E8        30.15F
DUNKIRK        CLEAR     51  45  79 CALM      30.14F
JAMESTOWN      CLOUDY    54  39  58 CALM      30.15S
WELLSVILLE     CLEAR     49  40  71 E5        30.20S
ROCHESTER      PTCLDY    52  40  63 SE3       30.19S
PENN YAN       CLOUDY    44  38  79 CALM      30.20S
$$

             KEY
       WCI = WIND CHILL INDEX
       VSB = VISIBILITY
       HX  = HEAT INDEX
$$




USA.gov is the U.S. government's official web portal to all federal, state and local government web resources and services.